Weather History for KCKC - February, 2014

Change the Weather History Date:

Thursday, February 27, 2014

  Actual Average Record
Temperature  
Mean Temperature -16 °F -  
Max Temperature -5 °F 22 °F 44 °F (2016)
Min Temperature -27 °F 7 °F -27 °F (2014)
Degree Days  
Heating Degree Days 81    
Moisture  
Dew Point -31 °F    
Average Humidity 52    
Maximum Humidity 70    
Minimum Humidity 30    
Precipitation  
Precipitation 0.00 in - - ()
Sea Level Pressure  
Sea Level Pressure 29.86 in    
Wind  
Wind Speed 10 mph (NW)    
Max Wind Speed 16 mph    
Max Gust Speed 29 mph    
Visibility 8 miles    
Events Snow    
Averages and records for this station are not official NWS values.
T = Trace of Precipitation, MM = Missing Value Source: NWS Daily Summary

Daily Weather History Graph

Daily Weather History Graph

Search for Another Location

Airport or City:

Trip Planner

Search our weather history database for the weather conditions in past years. The results will help you decide how hot, cold, wet, or windy it might be!

Date:

Astronomy

Feb. 27, 2014 Rise Set
Actual Time 6:46 AM CST 5:43 PM CST
Civil Twilight 6:14 AM CST 6:14 PM CST
Nautical Twilight 5:39 AM CST 6:50 PM CST
Astronomical Twilight 5:03 AM CST 7:26 PM CST
Moon 5:24 AM CST 4:05 PM CST
Length of Visible Light 11h 59m
Length of Day
10h 57m
Waning Crescent, 4% of the Moon is Illuminated
Feb 27
Waning Crescent
Mar 1
New
Mar 8
First Quarter
Mar 16
Full
Mar 23
Last Quarter

Hourly Weather History & Observations

Time (CST) Temp. Windchill Dew Point Humidity Pressure Visibility Wind Dir Wind Speed Gust Speed Precip Events Conditions
12:14 AM -13.0 °F -33.4 °F -22.0 °F 64% 29.63 in 2.5 mi NW 11.5 mph 20.7 mph N/A   Haze
12:34 AM -13.0 °F -31.3 °F -22.0 °F 64% 29.64 in 2.0 mi NW 9.2 mph 16.1 mph N/A   Haze
12:54 AM -14.8 °F -37.5 °F -22.0 °F 70% 29.66 in 1.2 mi WNW 13.8 mph 23.0 mph N/A   Overcast
1:13 AM -14.8 °F -38.3 °F -25.6 °F 58% 29.67 in 2.5 mi NW 15.0 mph 21.9 mph N/A   Haze
1:34 AM -16.6 °F -41.4 °F -25.6 °F 64% 29.69 in 2.0 mi NW 16.1 mph 23.0 mph N/A   Haze
1:53 AM -16.6 °F -41.4 °F -25.6 °F 64% 29.70 in 4.0 mi NW 16.1 mph 24.2 mph N/A   Haze
2:13 AM -16.6 °F -37.9 °F -25.6 °F 64% 29.71 in 4.0 mi NW 11.5 mph 20.7 mph N/A   Haze
2:34 AM -18.4 °F -41.2 °F -27.4 °F 63% 29.72 in 4.0 mi NW 12.7 mph 19.6 mph N/A   Haze
2:53 AM -18.4 °F -40.2 °F -27.4 °F 63% 29.73 in 4.0 mi NW 11.5 mph 23.0 mph N/A   Haze
3:13 AM -20.2 °F -43.4 °F -29.2 °F 63% 29.74 in 5.0 mi NW 12.7 mph 20.7 mph N/A   Haze
3:34 AM -20.2 °F -45.2 °F -31.0 °F 58% 29.75 in 7.0 mi NW 15.0 mph 25.3 mph N/A   Scattered Clouds
3:54 AM -20.2 °F -46.0 °F -31.0 °F 58% 29.76 in 5.0 mi NW 16.1 mph 21.9 mph N/A   Haze
4:13 AM -20.2 °F -43.4 °F -32.8 °F 52% 29.76 in 5.0 mi NW 12.7 mph 28.8 mph N/A   Haze
4:33 AM -23.8 °F -50.7 °F -32.8 °F 63% 29.77 in 5.0 mi NW 16.1 mph 24.2 mph N/A   Haze
4:54 AM -23.8 °F -50.7 °F -32.8 °F 63% 29.78 in 10.0 mi NW 16.1 mph 21.9 mph N/A   Clear
5:14 AM -23.8 °F -50.7 °F -32.8 °F 63% 29.79 in 10.0 mi NNW 16.1 mph 21.9 mph N/A   Scattered Clouds
5:33 AM -25.6 °F -52.1 °F -34.6 °F 63% 29.80 in 10.0 mi NW 15.0 mph 25.3 mph N/A   Clear
5:54 AM -25.6 °F -53.0 °F -34.6 °F 63% 29.80 in 5.0 mi NW 16.1 mph 23.0 mph N/A   Haze
6:14 AM -25.6 °F -53.0 °F -34.6 °F 63% 29.81 in 7.0 mi NW 16.1 mph 25.3 mph N/A   Clear
6:33 AM -25.6 °F -50.2 °F -34.6 °F 63% 29.82 in 7.0 mi NW 12.7 mph 23.0 mph N/A   Scattered Clouds
6:54 AM -27.4 °F -50.3 °F -36.4 °F 62% 29.83 in 10.0 mi NW 10.4 mph 19.6 mph N/A   Clear
7:14 AM -27.4 °F -49.0 °F -36.4 °F 62% 29.85 in 10.0 mi WNW 9.2 mph - N/A   Clear
7:33 AM -25.6 °F -43.8 °F -36.4 °F 57% 29.86 in 10.0 mi NW 6.9 mph - N/A   Clear
7:54 AM -25.6 °F -49.2 °F -36.4 °F 57% 29.87 in 10.0 mi NW 11.5 mph 19.6 mph N/A Snow Light Snow
8:14 AM -25.6 °F -51.2 °F -36.4 °F 57% 29.88 in 7.0 mi NW 13.8 mph 19.6 mph N/A   Clear
8:33 AM -23.8 °F -44.5 °F -36.4 °F 52% 29.89 in 10.0 mi NW 9.2 mph 19.6 mph N/A Snow Light Snow
8:54 AM -23.8 °F -46.9 °F -36.4 °F 52% 29.89 in 5.0 mi NNW 11.5 mph 17.3 mph N/A Snow Light Snow
9:13 AM -22.0 °F -43.6 °F -36.4 °F 47% 29.90 in 10.0 mi NW 10.4 mph 17.3 mph N/A   Clear
9:34 AM -20.2 °F -40.1 °F -36.4 °F 43% 29.90 in 10.0 mi NW 9.2 mph 16.1 mph N/A   Clear
9:54 AM -18.4 °F -41.2 °F -36.4 °F 40% 29.91 in 10.0 mi NW 12.7 mph 18.4 mph N/A   Clear
10:13 AM -18.4 °F -41.2 °F -36.4 °F 40% 29.91 in 10.0 mi NNW 12.7 mph 19.6 mph N/A   Clear
10:34 AM -16.6 °F -37.9 °F -34.6 °F 40% 29.91 in 10.0 mi NNW 11.5 mph - N/A   Clear
10:54 AM -14.8 °F -34.6 °F -34.6 °F 36% 29.92 in 10.0 mi NW 10.4 mph - N/A   Clear
11:13 AM -14.8 °F -30.8 °F -34.6 °F 36% 29.92 in 10.0 mi NW 6.9 mph - N/A   Clear
11:34 AM -13.0 °F -30.0 °F -34.6 °F 33% 29.92 in 10.0 mi WNW 8.1 mph 17.3 mph N/A   Clear
11:54 AM -13.0 °F -32.4 °F -36.4 °F 30% 29.91 in 10.0 mi WNW 10.4 mph 18.4 mph N/A   Clear
12:13 PM -11.2 °F -30.1 °F -32.8 °F 34% 29.91 in 10.0 mi NW 10.4 mph 18.4 mph N/A   Clear
12:34 PM -11.2 °F -30.1 °F -32.8 °F 34% 29.91 in 10.0 mi NW 10.4 mph 16.1 mph N/A   Clear
12:54 PM -9.4 °F -24.3 °F -31.0 °F 34% 29.91 in 10.0 mi WNW 6.9 mph - N/A   Clear
1:13 PM -7.6 °F -24.6 °F -29.2 °F 34% 29.91 in 10.0 mi WNW 9.2 mph - N/A   Clear
1:33 PM -7.6 °F -24.6 °F -29.2 °F 34% 29.91 in 10.0 mi WNW 9.2 mph - N/A   Clear
1:54 PM -7.6 °F -23.4 °F -27.4 °F 38% 29.91 in 10.0 mi WNW 8.1 mph 16.1 mph N/A   Clear
2:14 PM -7.6 °F -22.1 °F -27.4 °F 38% 29.91 in 10.0 mi West 6.9 mph - N/A   Clear
2:33 PM -7.6 °F -23.4 °F -27.4 °F 38% 29.91 in 10.0 mi West 8.1 mph - N/A   Clear
2:53 PM -5.8 °F -14.5 °F -27.4 °F 35% 29.91 in 10.0 mi West 3.5 mph - N/A   Clear
3:14 PM -5.8 °F -16.7 °F -27.4 °F 35% 29.92 in 10.0 mi West 4.6 mph - N/A   Clear
3:33 PM -5.8 °F -19.9 °F -27.4 °F 35% 29.92 in 10.0 mi West 6.9 mph - N/A   Clear
3:54 PM -7.6 °F -18.8 °F -27.4 °F 38% 29.92 in 10.0 mi West 4.6 mph - N/A   Clear
4:14 PM -7.6 °F -22.1 °F -25.6 °F 41% 29.92 in 10.0 mi West 6.9 mph - N/A   Clear
4:33 PM -7.6 °F -20.6 °F -27.4 °F 38% 29.93 in 10.0 mi NW 5.8 mph - N/A   Clear
4:53 PM -9.4 °F -18.6 °F -27.4 °F 41% 29.93 in 10.0 mi WNW 3.5 mph - N/A   Clear
5:14 PM -9.4 °F -20.9 °F -27.4 °F 41% 29.93 in 10.0 mi WNW 4.6 mph - N/A   Clear
5:33 PM -11.2 °F - -27.4 °F 45% 29.93 in 10.0 mi Calm Calm - N/A   Clear
5:53 PM -13.0 °F - -27.4 °F 49% 29.93 in 10.0 mi Calm Calm - N/A   Clear
6:14 PM -14.8 °F -27.2 °F -27.4 °F 53% 29.93 in 10.0 mi NW 4.6 mph - N/A   Scattered Clouds
6:33 PM -14.8 °F -27.2 °F -27.4 °F 53% 29.93 in 10.0 mi WNW 4.6 mph - N/A   Scattered Clouds
6:54 PM -16.6 °F -29.3 °F -27.4 °F 58% 29.93 in 10.0 mi WNW 4.6 mph - N/A   Clear
7:14 PM -18.4 °F -28.9 °F -27.4 °F 63% 29.93 in 10.0 mi WNW 3.5 mph - N/A   Scattered Clouds
7:33 PM -22.0 °F -33.0 °F -31.0 °F 63% 29.94 in 10.0 mi West 3.5 mph - N/A   Scattered Clouds
7:53 PM -22.0 °F - -31.0 °F 63% 29.93 in 10.0 mi Calm Calm - N/A   Clear
8:14 PM -22.0 °F - -31.0 °F 63% 29.93 in 10.0 mi Calm Calm - N/A   Clear
8:33 PM -22.0 °F -33.0 °F -31.0 °F 63% 29.93 in 10.0 mi West 3.5 mph - N/A   Scattered Clouds
8:53 PM -23.8 °F -37.7 °F -31.0 °F 69% 29.93 in 10.0 mi WNW 4.6 mph - N/A   Clear
9:14 PM -25.6 °F -37.1 °F -34.6 °F 63% 29.93 in 10.0 mi WNW 3.5 mph - N/A   Clear
9:33 PM -23.8 °F - -32.8 °F 63% 29.93 in 10.0 mi Calm Calm - N/A   Clear
9:54 PM -23.8 °F -35.0 °F -32.8 °F 63% 29.93 in 10.0 mi WNW 3.5 mph - N/A   Scattered Clouds
10:14 PM -23.8 °F -35.0 °F -32.8 °F 63% 29.93 in 10.0 mi WNW 3.5 mph - N/A   Scattered Clouds
10:33 PM -20.2 °F -30.9 °F -29.2 °F 63% 29.94 in 10.0 mi West 3.5 mph - N/A   Scattered Clouds
10:54 PM -18.4 °F -28.9 °F -29.2 °F 58% 29.93 in 10.0 mi West 3.5 mph - N/A   Scattered Clouds
11:13 PM -22.0 °F - -31.0 °F 63% 29.93 in 10.0 mi Calm Calm - N/A   Scattered Clouds
11:34 PM -20.2 °F - -29.2 °F 63% 29.93 in 10.0 mi Calm Calm - N/A   Scattered Clouds
11:53 PM -22.0 °F - -32.8 °F 57% 29.93 in 10.0 mi Calm Calm - N/A   Scattered Clouds